SL-16 DEB, 22341

Orbit data source: Space-Track

SL-16 DEB, 22341 is space debris in LEO originally from a launch on Fri, 25 Dec 1992 UTC launched from the Tyuratam Missile And Space Complex (TTMTR). Debris objects in space refer to the collection of defunct objects orbiting the Earth. Examples of debris include non-operational satellites, rocket bodies, and fragments generated from explosions, collisions, or faulty payload assembly.

Loading next visibility...
Identifier
22341, 1992-093AE
Orbit
LEO
Country
Flag of CISCIS
Related business
Manufacturer
Unknown
Mission
Spacecraft
Bus & Motor
Unknown
Mass
Unknown
Launch date (UTC)
1992-12-25 (33 years ago)
Launch vehicle
Unknown
Launch site
Tyuratam Missile And Space Complex (TTMTR)
Object type
Payload
Rocket body
Debris
Shape & HBR
Unknown
Radar Cross Section
Small (<0.1 m²)

Expand to show TLE details & history
Last TLE update: 22 hours ago

TLE from 22 hours ago
0 SL-16 DEB
1 22341U 92093AE  25242.08936253  .00000299  00000-0  23896-3 0  9997
2 22341  70.7479 350.5828 0138224  63.2233 113.9496 13.94460200657110
Epoch: 2025-08-30T02:08Z
TLE epoch observation values (Epoch: 2025-08-30T02:08:40.922Z)
Latitude
1.21472°
Longitude
159.46152°
Altitude
957.324 km
Speed
7.352 km/s
True Right ascension
11h 20m 38s
True Declination
1° 12' 28"
Sunlit
Object was in daylight at epoch
Visualization orbit readout
Latitude
Unknown
Longitude
Unknown
Altitude
Unknown
Speed
Unknown
Apparent Right ascension
Unknown
Apparent Declination
Unknown
Sunlit
N/A
Visualization observer readout
Local Sidereal Time
15:57:54
Azimuth
Unknown
Elevation
Unknown
Doppler factor
Unknown
Orbital elements
Apogee altitude
1,011.765 km
Perigee altitude
810.258 km
Semi-major axis
7,289.148 km
Eccentricity
0.01382
Inclination
70.7479°
RAAN
350.5828°
Arg. of periapsis
63.2233°
True anomaly
115.38692°
Mean anomaly
113.9496°
Eccentric anomaly
114.66928°
Mean motion
3.48761 °/min
Orbital period
103.22 mins
BSTAR
0.00023896
Loading maneuver chart data...
Computing Atmospheric mass density...
Loading historical data...
Loading historical data...
Loading historical data...
Loading historical data...
Loading historical data...
Loading historical data...
Loading historical data...

Documentation

Showing up to 5 results
|